This demonstration page uses our WeatherBlox Daily Observations layout. Learn more.

Left ArrowRight Arrow

Hourly Observations for April 8, 2021

Temp ( °F °C ) Dew Point ( °F °C ) Humidity (%) Winds ( mph kmh ) Pressure ( in mb ) Visibility ( mi km ) Precip ( " mm )
12:48 am 00:48 Cloudy 43 6 39 4 87 87 NNW 18 30 29.70 1006 10 16 0.00 0.00
12:53 am 00:53 Cloudy 43 6.1 39 3.9 86 86 NNW 17 28 29.68 1005 10 16 0.00 0.00
1:53 am 01:53 Cloudy 45 7.2 40 4.4 83 83 NNW 23 37 29.65 1004 10 16 0.00 0.00
2:14 am 02:14 Cloudy 45 7.2 39 3.9 80 80 NNW 23 37 29.67 1005 10 16 0.00 0.00
2:53 am 02:53 Cloudy 45 7.2 37 2.8 74 74 NNW 24 39 29.64 1004 10 16 0.00 0.00
3:53 am 03:53 Cloudy 45 7.2 36 2.2 71 71 NNW 23 37 29.64 1004 10 16 0.00 0.00
4:09 am 04:09 Cloudy 44 6.7 36 2.2 73 73 NNW 21 33 29.66 1004 10 16 0.00 0.00
4:23 am 04:23 Cloudy 44 6.7 35 1.7 71 71 NNW 21 33 29.65 1004 10 16 0.00 0.00
4:53 am 04:53 Mostly Cloudy 43 6.1 34 1.1 71 71 NW 20 31 29.64 1004 10 16 0.00 0.00
5:53 am 05:53 Mostly Cloudy 43 6.1 34 1.1 71 71 NNW 21 33 29.65 1004 10 16 0.00 0.00
6:53 am 06:53 Mostly Cloudy 42 5.6 34 1.1 73 73 NNW 18 30 29.65 1004 10 16 0.00 0.00
7:53 am 07:53 Mostly Cloudy 41 5 33 0.6 73 73 NW 16 26 29.66 1005 10 16 0.00 0.00
8:13 am 08:13 Partly Cloudy 42 5.6 34 1.1 73 73 NW 20 31 29.68 1005 10 16 0.00 0.00
8:53 am 08:53 Sunny 44 6.7 36 2.2 73 73 NW 21 33 29.67 1005 10 16 0.00 0.00
9:53 am 09:53 Sunny 48 8.9 38 3.3 68 68 NNW 23 37 29.66 1004 10 16 0.00 0.00
10:53 am 10:53 Sunny 52 11.1 39 3.9 61 61 NW 20 31 29.66 1005 10 16 0.00 0.00
11:53 am 11:53 Sunny 56 13.3 38 3.3 51 51 NW 24 39 29.64 1004 10 16 0.00 0.00
12:53 pm 12:53 Sunny 59 15 33 0.6 38 38 NW 21 33 29.62 1003 10 16 0.00 0.00
1:53 pm 13:53 Sunny 61 16.1 31 -0.6 32 32 NW 23 37 29.60 1002 10 16 0.00 0.00
2:53 pm 14:53 Sunny 62 16.7 28 -2.2 28 28 NW 25 41 29.57 1002 10 16 0.00 0.00
3:53 pm 15:53 Sunny 64 17.8 28 -2.2 26 26 NW 20 31 29.56 1001 10 16 0.00 0.00
5:53 pm 17:53 Sunny 66 18.9 28 -2.2 24 24 NNW 20 31 29.55 1001 10 16 0.00 0.00
6:53 pm 18:53 Sunny 61 16.1 31 -0.6 32 32 NW 10 17 29.56 1001 10 16 0.00 0.00
7:53 pm 19:53 Sunny 57 13.9 34 1.1 42 42 N 8 13 29.57 1001 10 16 0.00 0.00
8:53 pm 20:53 Clear 55 12.8 31 -0.6 40 40 W 5 7 29.58 1002 10 16 0.00 0.00
9:53 pm 21:53 Clear 50 10 33 0.6 52 52 Calm 29.60 1002 10 16 0.00 0.00
10:53 pm 22:53 Clear 47 8.3 32 0 56 56 WSW 6 9 29.60 1002 10 16 0.00 0.00
11:53 pm 23:53 Clear 44 6.7 33 0.6 65 65 Calm 29.59 1002 10 16 0.00 0.00

Powered by AerisWeather